Location: Cheching
(60.0667°N, 164.2167°W)
Time: 12:41:09
(UTC+00:00)

FENGYUN 1C DEB - Pass Details

Date: 02 October 2021
Orbit: 727 x 819 km, 99.4° (Epoch: 17 October)

Event Time Altitude Azimuth Distance (km) Brightness Sun altitude
Exits shadow 11:58:05 42° 44° (NE) 1,059 ? -32.0°
Drops below altitude 10° 12:02:26 10° 347° (NNW) 2,295 ? -31.8°
Sets 12:04:50 0° 341° (NNW) 3,239 ? -31.7°
